H1 CPF 1 NER 2019 12 18 9 8521 glonass133 H2 1403201 9133 40001 2019 12 18 0 0 0 2019 12 21 23 45 0 900 1 1 0 0 0 H9 10 0 58835 0.00000 0 15366098.778 -20378827.847 -334458.122 10 0 58835 900.00000 0 15107166.437 -20370226.515 2896855.716 10 0 58835 1800.00000 0 14644440.243 -20006398.812 6072008.254 10 0 58835 2700.00000 0 14032785.671 -19269686.622 9129449.989 10 0 58835 3600.00000 0 13330770.684 -18155508.755 12009916.554 10 0 58835 4500.00000 0 12598036.877 -16672743.444 14657571.547 10 0 58835 5400.00000 0 11892640.799 -14843561.743 17021082.898 10 0 58835 6300.00000 0 11268477.096 -12702717.672 19054612.531 10 0 58835 7200.00000 0 10772891.611 -10296323.782 20718700.603 10 0 58835 8100.00000 0 10444584.500 -7680161.900 21981027.876 10 0 58835 9000.00000 0 10311891.358 -4917597.879 22817041.928 10 0 58835 9900.00000 0 10391514.613 -2077185.676 23210435.376 10 0 58835 10800.00000 0 10687758.789 769941.269 23153467.003 10 0 58835 11700.00000 0 11192302.375 3552784.513 22647119.375 10 0 58835 12600.00000 0 11884516.774 6203189.424 21701089.399 10 0 58835 13500.00000 0 12732320.048 8658436.931 20333611.285 10 0 58835 14400.00000 0 13693530.802 10863611.323 18571114.323 10 0 58835 15300.00000 0 14717666.482 12773645.993 16447721.035 10 0 58835 16200.00000 0 15748111.452 14354962.209 14004594.300 10 0 58835 17100.00000 0 16724564.280 15586632.616 11289145.087 10 0 58835 18000.00000 0 17585661.425 16461020.731 8354115.453 10 0 58835 18900.00000 0 18271666.517 16983869.689 5256554.167 10 0 58835 19800.00000 0 18727111.156 17173836.647 2056704.758 10 0 58835 20700.00000 0 18903274.711 17061492.707 -1183171.940 10 0 58835 21600.00000 0 18760397.096 16687831.116 -4400017.214 10 0 58835 22500.00000 0 18269529.615 16102347.504 -7531211.157 10 0 58835 23400.00000 0 17413944.235 15360774.262 -10515801.360 10 0 58835 24300.00000 0 16190040.486 14522566.054 -13295698.553 10 0 58835 25200.00000 0 14607710.554 13648243.955 -15816814.921 10 0 58835 26100.00000 0 12690146.355 12796711.655 -18030122.020 10 0 58835 27000.00000 0 10473096.071 12022658.094 -19892607.243 10 0 58835 27900.00000 0 8003600.945 11374156.918 -21368110.071 10 0 58835 28800.00000 0 5338265.136 10890564.383 -22428021.944 10 0 58835 29700.00000 0 2541130.869 10600804.360 -23051836.648 10 0 58835 30600.00000 0 -318752.564 10522112.356 -23227541.198 10 0 58835 31500.00000 0 -3169964.693 10659290.837 -22951840.384 10 0 58835 32400.00000 0 -5941445.315 11004506.422 -22230211.469 10 0 58835 33300.00000 0 -8565208.478 11537636.629 -21076788.725 10 0 58835 34200.00000 0 -10978926.854 12227150.763 -19514080.677 10 0 58835 35100.00000 0 -13128280.190 13031487.179 -17572526.031 10 0 58835 36000.00000 0 -14968971.413 13900868.406 -15289897.189 10 0 58835 36900.00000 0 -16468327.904 14779477.387 -12710563.097 10 0 58835 37800.00000 0 -17606422.798 15607902.997 -9884625.787 10 0 58835 38700.00000 0 -18376671.229 16325751.855 -6866947.277 10 0 58835 39600.00000 0 -18785878.157 16874316.451 -3716085.693 10 0 58835 40500.00000 0 -18853737.379 17199187.325 -493161.166 10 0 58835 41400.00000 0 -18611804.084 17252699.416 2739326.684 10 0 58835 42300.00000 0 -18101985.210 16996109.594 5918706.727 10 0 58835 43200.00000 0 -17374611.891 16401413.728 8983346.575 10 0 58835 44100.00000 0 -16486175.578 15452726.651 11873841.919 10 0 58835 45000.00000 0 -15496823.286 14147166.681 14534162.119 10 0 58835 45900.00000 0 -14467717.267 12495206.952 16912730.349 10 0 58835 46800.00000 0 -13458369.852 10520477.923 18963417.928 10 0 58835 47700.00000 0 -12524065.071 8259028.218 20646434.080 10 0 58835 48600.00000 0 -11713474.891 5758073.278 21929094.539 10 0 58835 49500.00000 0 -11066569.677 3074282.349 22786454.638 10 0 58835 50400.00000 0 -10612910.311 271673.528 23201794.914 10 0 58835 51300.00000 0 -10370393.473 -2580797.388 23166950.007 10 0 58835 52200.00000 0 -10344502.890 -5411855.744 22682474.317 10 0 58835 53100.00000 0 -10528098.382 -8150627.206 21757640.730 10 0 58835 54000.00000 0 -10901752.212 -10729345.647 20410271.735 10 0 58835 54900.00000 0 -11434619.435 -13085938.144 18666405.191 10 0 58835 55800.00000 0 -12085806.554 -15166380.130 16559800.156 10 0 58835 56700.00000 0 -12806181.707 -16926722.939 14131291.221 10 0 58835 57600.00000 0 -13540550.792 -18334709.239 11428002.824 10 0 58835 58500.00000 0 -14230108.077 -19370908.646 8502438.058 10 0 58835 59400.00000 0 -14815057.819 -20029325.824 5411459.179 10 0 58835 60300.00000 0 -15237295.659 -20317455.461 2215179.509 10 0 58835 61200.00000 0 -15443035.570 -20255781.776 -1024211.315 10 0 58835 62100.00000 0 -15385270.059 -19876743.977 -4243665.256 10 0 58835 63000.00000 0 -15025958.145 -19223211.781 -7380512.316 10 0 58835 63900.00000 0 -14337847.074 -18346536.154 -10373690.195 10 0 58835 64800.00000 0 -13305849.322 -17304258.579 -13164942.150 10 0 58835 65700.00000 0 -11927915.367 -16157576.713 -15699958.658 10 0 58835 66600.00000 0 -10215364.345 -14968674.551 -17929439.774 10 0 58835 67500.00000 0 -8192657.781 -13798030.778 -19810057.012 10 0 58835 68400.00000 0 -5896625.235 -12701819.542 -21305295.868 10 0 58835 69300.00000 0 -3375173.987 -11729513.614 -22386162.696 10 0 58835 70200.00000 0 -685536.450 -10921790.890 -23031742.696 10 0 58835 71100.00000 0 2107871.703 -10308831.929 -23229598.823 10 0 58835 72000.00000 0 4935893.515 -9909079.465 -22976004.659 10 0 58835 72900.00000 0 7727271.444 -9728511.014 -22276007.545 10 0 58835 73800.00000 0 10411377.401 -9760454.053 -21143321.487 10 0 58835 74700.00000 0 12920919.104 -9985950.323 -19600052.577 10 0 58835 75600.00000 0 15194511.122 -10374652.815 -17676262.706 10 0 58835 76500.00000 0 17179004.665 -10886216.699 -15409380.323 10 0 58835 77400.00000 0 18831480.312 -11472124.849 -12843469.904 10 0 58835 78300.00000 0 20120822.008 -12077870.505 -10028374.296 10 0 58835 79200.00000 0 21028808.105 -12645404.705 -7018746.545 10 0 58835 80100.00000 0 21550675.278 -13115745.154 -3872989.980 10 0 58835 81000.00000 0 21695133.155 -13431636.436 -652127.000 10 0 58835 81900.00000 0 21483830.352 -13540149.386 2581381.633 10 0 58835 82800.00000 0 20950295.357 -13395110.088 5764844.118 10 0 58835 83700.00000 0 20138397.635 -12959256.053 8836548.357 10 0 58835 84600.00000 0 19100394.134 -12206028.615 11736952.900 10 0 58835 85500.00000 0 17894643.539 -11120925.830 14409835.241 10 0 58836 0.00000 0 16583084.300 -9702358.511 16803375.657 10 0 58836 900.00000 0 15228582.134 -7961972.158 18871156.389 10 0 58836 1800.00000 0 13892257.516 -5924421.557 20573056.679 10 0 58836 2700.00000 0 12630905.531 -3626603.977 21876027.798 10 0 58836 3600.00000 0 11494614.478 -1116383.345 22754733.006 10 0 58836 4500.00000 0 10524683.392 1549144.399 23192040.556 10 0 58836 5400.00000 0 9751924.787 4305773.923 23179360.387 10 0 58836 6300.00000 0 9195423.625 7084614.860 22716817.835 10 0 58836 7200.00000 0 8861804.451 9814718.704 21813260.541 10 0 58836 8100.00000 0 8745037.657 12425800.536 20486097.744 10 0 58836 9000.00000 0 8826793.383 14850943.652 18760974.067 10 0 58836 9900.00000 0 9077328.749 17029175.156 16671283.042 10 0 58836 10800.00000 0 9456871.640 18907805.755 14257528.689 10 0 58836 11700.00000 0 9917443.257 20444436.141 11566546.433 10 0 58836 12600.00000 0 10405042.823 21608545.909 8650597.747 10 0 58836 13500.00000 0 10862102.178 22382598.159 5566355.588 10 0 58836 14400.00000 0 11230106.104 22762613.101 2373800.200 10 0 58836 15300.00000 0 11452266.784 22758186.276 -864952.867 10 0 58836 16200.00000 0 11476138.091 22391950.586 -4086869.085 10 0 58836 17100.00000 0 11256057.653 21698505.027 -7229231.049 10 0 58836 18000.00000 0 10755311.856 20722855.750 -10230869.043 10 0 58836 18900.00000 0 9947930.637 19518436.014 -13033361.040 10 0 58836 19800.00000 0 8820034.733 18144789.454 -15582177.705 10 0 58836 20700.00000 0 7370677.252 16665015.415 -17827749.170 10 0 58836 21600.00000 0 5612143.009 15143084.985 -19726432.357 10 0 58836 22500.00000 0 3569692.178 13641141.521 -21241359.796 10 0 58836 23400.00000 0 1280758.461 12216899.791 -22343153.522 10 0 58836 24300.00000 0 -1206365.085 10921253.158 -23010490.666 10 0 58836 25200.00000 0 -3834297.925 9796189.021 -23230510.374 10 0 58836 26100.00000 0 -6538727.865 8873099.361 -22999054.950 10 0 58836 27000.00000 0 -9250861.221 8171556.211 -22320741.373 10 0 58836 27900.00000 0 -11900065.730 7698602.121 -21208862.542 10 0 58836 28800.00000 0 -14416596.598 7448583.954 -19685120.838 10 0 58836 29700.00000 0 -16734292.942 7403535.490 -17779199.644 10 0 58836 30600.00000 0 -18793133.259 7534091.324 -15528181.426 10 0 58836 31500.00000 0 -20541544.361 7800892.434 -12975823.878 10 0 58836 32400.00000 0 -21938368.707 8156423.160 -10171708.184 10 0 58836 33300.00000 0 -22954409.211 8547201.503 -7170275.866 10 0 58836 34200.00000 0 -23573488.150 8916229.820 -4029772.888 10 0 58836 35100.00000 0 -23792977.124 9205602.253 -811121.386 10 0 58836 36000.00000 0 -23623776.985 9359158.666 2423259.208 10 0 58836 36900.00000 0 -23089749.531 9325073.039 5610658.840 10 0 58836 37800.00000 0 -22226625.636 9058267.067 8689288.051 10 0 58836 38700.00000 0 -21080436.132 8522547.046 11599470.536 10 0 58836 39600.00000 0 -19705531.631 7692373.820 14284794.127 10 0 58836 40500.00000 0 -18162274.353 6554190.858 16693198.379 10 0 58836 41400.00000 0 -16514498.502 5107253.933 18777978.211 10 0 58836 42300.00000 0 -14826845.179 3363926.677 20498684.669 10 0 58836 43200.00000 0 -13162082.795 1349428.294 21821906.033 10 0 58836 44100.00000 0 -11578524.376 -898957.564 22721914.644 10 0 58836 45000.00000 0 -10127649.066 -3333181.480 23181167.304 10 0 58836 45900.00000 0 -8852026.575 -5896182.316 23190649.740 10 0 58836 46800.00000 0 -7783630.784 -8524025.538 22750058.358 10 0 58836 47700.00000 0 -6942612.711 -11148338.627 21867815.335 10 0 58836 48600.00000 0 -6336583.991 -13698943.903 20560916.074 10 0 58836 49500.00000 0 -5960440.917 -16106580.592 18854611.006 10 0 58836 50400.00000 0 -5796736.644 -18305603.616 16781926.825 10 0 58836 51300.00000 0 -5816586.159 -20236547.210 14383035.308 10 0 58836 52200.00000 0 -5981066.192 -21848446.503 11704480.878 10 0 58836 53100.00000 0 -6243051.234 -23100819.724 8798281.129 10 0 58836 54000.00000 0 -6549408.062 -23965227.646 5720917.238 10 0 58836 54900.00000 0 -6843455.656 -24426344.273 2532233.718 10 0 58836 55800.00000 0 -7067585.749 -24482493.210 -705730.739 10 0 58836 56700.00000 0 -7165932.039 -24145626.796 -3929957.980 10 0 58836 57600.00000 0 -7086973.688 -23440748.684 -7077686.121 10 0 58836 58500.00000 0 -6785961.415 -22404804.346 -10087641.001 10 0 58836 59400.00000 0 -6227061.893 -21085086.708 -12901238.280 10 0 58836 60300.00000 0 -5385128.226 -19537224.783 -15463731.710 10 0 58836 61200.00000 0 -4247020.332 -17822840.890 -17725284.270 10 0 58836 62100.00000 0 -2812418.337 -16006975.988 -19641940.812 10 0 58836 63000.00000 0 -1094093.724 -14155392.150 -21176483.093 10 0 58836 63900.00000 0 882373.826 -12331866.108 -22299150.598 10 0 58836 64800.00000 0 3079422.589 -10595587.697 -22988213.671 10 0 58836 65700.00000 0 5448843.759 -8998772.045 -23230388.418 10 0 58836 66600.00000 0 7933569.627 -7584585.040 -23021086.124 10 0 58836 67500.00000 0 10469840.650 -6385467.904 -22364493.164 10 0 58836 68400.00000 0 12989661.357 -5421929.704 -21273480.633 10 0 58836 69300.00000 0 15423443.075 -4701856.785 -19769346.064 10 0 58836 70200.00000 0 17702723.919 -4220366.367 -17881392.775 10 0 58836 71100.00000 0 19762853.349 -3960208.685 -15646355.275 10 0 58836 72000.00000 0 21545530.101 -3892699.196 -13107682.076 10 0 58836 72900.00000 0 23001088.496 -3979140.204 -10314689.893 10 0 58836 73800.00000 0 24090438.635 -4172670.894 -7321605.537 10 0 58836 74700.00000 0 24786580.326 -4420466.904 -4186514.121 10 0 58836 75600.00000 0 25075628.398 -4666196.059 -970233.844 10 0 58836 76500.00000 0 24957307.402 -4852626.200 2264860.946 10 0 58836 77400.00000 0 24444895.751 -4924274.827 5456045.602 10 0 58836 78300.00000 0 23564622.329 -4829988.578 8541456.760 10 0 58836 79200.00000 0 22354541.306 -4525343.592 11461286.387 10 0 58836 80100.00000 0 20862932.561 -3974765.402 14158935.380 10 0 58836 81000.00000 0 19146294.758 -3153278.767 16582104.802 10 0 58836 81900.00000 0 17267014.820 -2047813.277 18683804.156 10 0 58836 82800.00000 0 15290810.881 -658009.162 20423257.638 10 0 58836 83700.00000 0 13284054.955 1003511.608 21766691.484 10 0 58836 84600.00000 0 11311086.338 2911421.668 22687987.684 10 0 58836 85500.00000 0 9431627.116 5028502.116 23169191.765 10 0 58837 0.00000 0 7698406.723 7306961.709 23200865.056 10 0 58837 900.00000 0 6155094.075 9690208.655 22782274.430 10 0 58837 1800.00000 0 4834622.358 12115002.284 21921415.652 10 0 58837 2700.00000 0 3757977.286 14513897.711 20634868.937 10 0 58837 3600.00000 0 2933497.556 16817882.471 18947488.820 10 0 58837 4500.00000 0 2356718.011 18959096.521 16891933.114 10 0 58837 5400.00000 0 2010761.446 20873522.810 14508039.020 10 0 58837 6300.00000 0 1867262.813 22503536.309 11842057.366 10 0 58837 7200.00000 0 1887786.906 23800204.611 8945759.055 10 0 58837 8100.00000 0 2025679.583 24725243.265 5875430.498 10 0 58837 9000.00000 0 2228273.935 25252543.098 2690777.375 10 0 58837 9900.00000 0 2439357.485 25369204.514 -546241.629 10 0 58837 10800.00000 0 2601794.989 25076034.578 -3772627.856 10 0 58837 11700.00000 0 2660194.527 24387485.419 -6925577.934 10 0 58837 12600.00000 0 2563502.559 23331036.278 -9943716.037 10 0 58837 13500.00000 0 2267416.492 21946045.302 -12768298.013 10 0 58837 14400.00000 0 1736511.121 20282119.793 -15344362.876 10 0 58837 15300.00000 0 945987.645 18397074.090 -17621808.286 10 0 58837 16200.00000 0 -117029.874 16354561.707 -19556368.524 10 0 58837 17100.00000 0 -1452706.280 14221481.859 -21110475.748 10 0 58837 18000.00000 0 -3048249.276 12065269.833 -22253987.781 10 0 58837 18900.00000 0 -4878216.439 9951185.054 -22964768.757 10 0 58837 19800.00000 0 -6905362.889 7939710.307 -23229112.003 10 0 58837 20700.00000 0 -9081994.287 6084170.519 -23041997.681 10 0 58837 21600.00000 0 -11351768.879 4428669.722 -22407181.068 10 0 58837 22500.00000 0 -13651873.535 3006431.140 -21337110.500 10 0 58837 23400.00000 0 -15915483.195 1838608.264 -19852677.267 10 0 58837 24300.00000 0 -18074401.501 933614.790 -17982802.785 10 0 58837 25200.00000 0 -20061772.911 286999.574 -15763871.379 10 0 58837 26100.00000 0 -21814753.624 -118130.012 -13239019.861 10 0 58837 27000.00000 0 -23277030.451 -310155.870 -10457297.752 10 0 58837 27900.00000 0 -24401083.112 -327509.681 -7472714.319 10 0 58837 28800.00000 0 -25150096.020 -216807.937 -4343190.956 10 0 58837 29700.00000 0 -25499440.307 -30641.106 -1129439.072 10 0 58837 30600.00000 0 -25437664.727 174889.171 2106214.862 10 0 58837 31500.00000 0 -24966954.466 342780.478 5301034.335 10 0 58837 32400.00000 0 -24103039.170 417777.167 8393084.700 10 0 58837 33300.00000 0 -22874554.307 348943.166 11322428.709 10 0 58837 34200.00000 0 -21321882.782 92051.430 14032282.671 10 0 58837 35100.00000 0 -19495525.197 -388310.850 16470111.305 10 0 58837 36000.00000 0 -17454066.612 -1117010.263 18588640.578 10 0 58837 36900.00000 0 -15261824.277 -2107081.723 20346769.399 10 0 58837 37800.00000 0 -12986273.826 -3358944.358 21710363.164 10 0 58837 38700.00000 0 -10695360.399 -4860152.739 22652914.325 10 0 58837 39600.00000 0 -8454805.878 -6585695.222 23156057.566 10 0 58837 40500.00000 0 -6325523.405 -8498828.613 23209929.844 10 0 58837 41400.00000 0 -4361245.925 -10552416.141 22813368.252 10 0 58837 42300.00000 0 -2606466.805 -12690714.698 21973941.494 10 0 58837 43200.00000 0 -1094777.654 -14851538.650 20707813.712 10 0 58837 44100.00000 0 152327.779 -16968711.518 19039442.356 10 0 58837 45000.00000 0 1126133.922 -18974704.410 17001114.905 10 0 58837 45900.00000 0 1830839.651 -20803351.888 14632332.254 10 0 58837 46800.00000 0 2283144.927 -22392532.062 11979049.652 10 0 58837 47700.00000 0 2511305.267 -23686698.612 9092789.087 10 0 58837 48600.00000 0 2553694.094 -24639158.098 6029639.793 10 0 58837 49500.00000 0 2456934.041 -25213996.161 2849166.059 10 0 58837 50400.00000 0 2273676.737 -25387570.690 -386756.107 10 0 58837 51300.00000 0 2060125.952 -25149508.107 -3615150.253 10 0 58837 52200.00000 0 1873410.079 -24503159.965 -6773174.276 10 0 58837 53100.00000 0 1768916.610 -23465499.960 -9799353.426 10 0 58837 54000.00000 0 1797702.976 -22066465.356 -12634786.454 10 0 58837 54900.00000 0 2004094.863 -20347770.492 -15224300.269 10 0 58837 55800.00000 0 2423575.008 -18361242.592 -17517529.702 10 0 58837 56700.00000 0 3081052.930 -16166750.269 -19469900.748 10 0 58837 57600.00000 0 3989589.653 -13829812.209 -21043497.959 10 0 58837 58500.00000 0 5149631.894 -11418986.844 -22207799.111 10 0 58837 59400.00000 0 6548788.466 -9003152.616 -22940263.344 10 0 58837 60300.00000 0 8162158.665 -6648792.567 -23226761.971 10 0 58837 61200.00000 0 9953199.002 -4417396.435 -23061844.361 10 0 58837 62100.00000 0 11875092.113 -2363087.941 -22448834.586 10 0 58837 63000.00000 0 13872560.705 -530575.131 -21399757.727 10 0 58837 63900.00000 0 15884050.760 1046492.107 -19935097.933 10 0 58837 64800.00000 0 17844192.981 2346690.570 -18083393.448 10 0 58837 65700.00000 0 19686439.932 3361471.439 -15880676.750 10 0 58837 66600.00000 0 21345768.942 4095261.976 -13369770.899 10 0 58837 67500.00000 0 22761338.266 4565018.962 -10599455.756 10 0 58837 68400.00000 0 23878985.848 4799254.409 -7623520.213 10 0 58837 69300.00000 0 24653466.616 4836576.021 -4499718.785 10 0 58837 70200.00000 0 25050335.125 4723805.125 -1288652.699 10 0 58837 71100.00000 0 25047395.140 4513752.367 1947402.955 10 0 58837 72000.00000 0 24635655.790 4262745.584 5145703.295 10 0 58837 72900.00000 0 23819754.530 4028014.637 8244245.755 10 0 58837 73800.00000 0 22617829.275 3865043.729 11182966.992 10 0 58837 74700.00000 0 21060845.093 3825003.011 13904901.529 10 0 58837 75600.00000 0 19191403.372 3952367.838 16357280.185 10 0 58837 76500.00000 0 17062082.800 4282826.074 18492547.452 10 0 58837 77400.00000 0 14733380.858 4841561.781 20269278.641 10 0 58837 78300.00000 0 12271340.856 5641987.900 21652979.627 10 0 58837 79200.00000 0 9744962.422 6684981.900 22616754.289 10 0 58837 80100.00000 0 7223502.227 7958657.481 23141827.065 10 0 58837 81000.00000 0 4773776.155 9438683.213 23217910.774 10 0 58837 81900.00000 0 2457574.008 11089136.417 22843412.534 10 0 58837 82800.00000 0 329293.398 12863858.223 22025473.410 10 0 58837 83700.00000 0 -1566109.563 14708254.951 20779840.432 10 0 58837 84600.00000 0 -3194768.107 16561472.148 19130572.514 10 0 58837 85500.00000 0 -4535082.806 18358851.717 17109584.943 10 0 58838 0.00000 0 -5578380.919 20034570.366 14756040.160 10 0 58838 900.00000 0 -6329029.545 21524349.354 12115595.205 10 0 58838 1800.00000 0 -6803998.431 22768122.385 9239520.462 10 0 58838 2700.00000 0 -7031890.204 23712548.357 6183705.038 10 0 58838 3600.00000 0 -7051480.308 24313263.829 3007568.758 10 0 58838 4500.00000 0 -6909828.010 24536778.383 -227098.189 10 0 58838 5400.00000 0 -6660039.528 24361932.399 -3457344.717 10 0 58838 6300.00000 0 -6358778.875 23780854.523 -6620293.071 10 0 58838 7200.00000 0 -6063633.070 22799377.509 -9654372.523 10 0 58838 8100.00000 0 -5830444.689 21436894.189 -12500527.436 10 0 58838 9000.00000 0 -5710726.146 19725659.152 -15103375.060 10 0 58838 9900.00000 0 -5749266.456 17709565.461 -17412289.512 10 0 58838 10800.00000 0 -5982032.876 15442447.921 -19382390.289 10 0 58838 11700.00000 0 -6434457.030 12985984.383 -20975415.791 10 0 58838 12600.00000 0 -7120178.481 10407283.435 -22160464.893 10 0 58838 13500.00000 0 -8040299.114 7776259.694 -22914592.555 10 0 58838 14400.00000 0 -9183179.934 5162906.393 -23223248.566 10 0 58838 15300.00000 0 -10524788.811 2634578.972 -23080551.623 10 0 58838 16200.00000 0 -12029584.529 253402.346 -22489394.314 10 0 58838 17100.00000 0 -13651900.018 -1926091.082 -21461377.746 10 0 58838 18000.00000 0 -15337766.705 -3858995.450 -20016577.754 10 0 58838 18900.00000 0 -17027103.630 -5511654.364 -18183147.783 10 0 58838 19800.00000 0 -18656179.766 -6862806.903 -15996766.427 10 0 58838 20700.00000 0 -20160246.608 -7904210.722 -13499940.597 10 0 58838 21600.00000 0 -21476231.062 -8640718.270 -10741177.840 10 0 58838 22500.00000 0 -22545376.134 -9089804.827 -7774043.822 10 0 58838 23400.00000 0 -23315719.053 -9280569.880 -4656123.219 10 0 58838 24300.00000 0 -23744303.292 -9252255.351 -1447904.057 10 0 58838 25200.00000 0 -23799031.978 -9052344.206 1788392.993 10 0 58838 26100.00000 0 -23460085.192 -8734320.450 4990017.689 10 0 58838 27000.00000 0 -22720841.815 -8355185.526 8094902.505 10 0 58838 27900.00000 0 -21588267.257 -7972836.218 11042860.842 10 0 58838 28800.00000 0 -20082750.646 -7643414.731 13776748.129 10 0 58838 29700.00000 0 -18237397.912 -7418742.693 16243563.730 10 0 58838 30600.00000 0 -16096809.741 -7343947.144 18395472.813 10 0 58838 31500.00000 0 -13715394.680 -7455378.447 20190728.859 10 0 58838 32400.00000 0 -11155286.790 -7778907.855 21594479.571 10 0 58838 33300.00000 0 -8483953.427 -8328676.614 22579441.156 10 0 58838 34200.00000 0 -5771591.559 -9106349.739 23126428.259 10 0 58838 35100.00000 0 -3088419.575 -10100906.680 23224729.599 10 0 58838 36000.00000 0 -501975.881 -11288978.877 22872321.965 10 0 58838 36900.00000 0 1925464.521 -12635721.450 22075918.103 10 0 58838 37800.00000 0 4139249.101 -14096184.098 20850846.955 10 0 58838 38700.00000 0 6094385.158 -15617125.325 19220767.656 10 0 58838 39600.00000 0 7757171.121 -17139195.371 17217221.794 10 0 58838 40500.00000 0 9106354.147 -18599397.453 14879031.468 10 0 58838 41400.00000 0 10133765.875 -19933724.792 12251553.698 10 0 58838 42300.00000 0 10844409.846 -21079862.920 9385804.830 10 0 58838 43200.00000 0 11255997.129 -21979843.428 6337471.294 10 0 58838 44100.00000 0 11397949.984 -22582536.863 3165825.683 10 0 58838 45000.00000 0 11309916.008 -22845878.679 -67430.526 10 0 58838 45900.00000 0 11039856.178 -22738733.219 -3299374.584 10 0 58838 46800.00000 0 10641788.576 -22242315.772 -6467096.032 10 0 58838 47700.00000 0 10173284.355 -21351111.451 -9508931.048 10 0 58838 48600.00000 0 9692823.255 -20073251.100 -12365672.372 10 0 58838 49500.00000 0 9257121.949 -18430327.528 -14981730.180 10 0 58838 50400.00000 0 8918549.580 -16456659.346 -17306220.264 10 0 58838 51300.00000 0 8722740.902 -14198033.126 -19293957.737 10 0 58838 52200.00000 0 8706508.818 -11709976.650 -20906336.659 10 0 58838 53100.00000 0 8896144.986 -9055635.835 -22112078.434 10 0 58838 54000.00000 0 9306180.483 -6303344.251 -22887834.884 10 0 58838 54900.00000 0 9938658.764 -3523986.811 -23218634.885 10 0 58838 55800.00000 0 10782951.285 -788267.512 -23098166.665 10 0 58838 56700.00000 0 11816123.291 1836005.380 -22528891.138 10 0 58838 57600.00000 0 13003834.013 4286504.444 -21521984.872 10 0 58838 58500.00000 0 14301733.175 6508731.903 -20097114.481 10 0 58838 59400.00000 0 15657294.972 8458035.756 -18282047.367 10 0 58838 60300.00000 0 17012012.424 10101210.932 -16112106.668 10 0 58838 61200.00000 0 18303860.042 11417620.426 -13629481.230 10 0 58838 62100.00000 0 19469921.512 12399791.581 -10882404.030 10 0 58838 63000.00000 0 20449072.326 13053464.522 -7924214.912 10 0 58838 63900.00000 0 21184604.887 13397092.416 -4812325.825 10 0 58838 64800.00000 0 21626686.088 13460816.259 -1607108.478 10 0 58838 65700.00000 0 21734544.324 13284958.587 1629274.128 10 0 58838 66600.00000 0 21478294.207 12918100.562 4834069.672 10 0 58838 67500.00000 0 20840322.349 12414824.181 7945148.860 10 0 58838 68400.00000 0 19816175.951 11833215.195 10902204.863 10 0 58838 69300.00000 0 18414916.603 11232232.154 13647916.786 10 0 58838 70200.00000 0 16658924.002 10669052.448 16129055.018 10 0 58838 71100.00000 0 14583157.034 10196506.956 18297507.567 10 0 58838 72000.00000 0 12233902.245 9860711.121 20111207.927 10 0 58838 72900.00000 0 9667060.767 9698991.932 21534947.153 10 0 58838 73800.00000 0 6946043.783 9738197.927 22541054.971 10 0 58838 74700.00000 0 4139362.786 9993463.400 23109937.080 10 0 58838 75600.00000 0 1318013.353 10467479.104 23230458.571 10 0 58838 76500.00000 0 -1447240.315 11150300.835 22900165.978 10 0 58838 77400.00000 0 -4088568.511 12019704.862 22125343.362 10 0 58838 78300.00000 0 -6543655.696 13042076.561 20920900.754 10 0 58838 79200.00000 0 -8758050.402 14173796.246 19310096.228 10 0 58838 80100.00000 0 -10687188.192 15363065.341 17324095.954 10 0 58838 81000.00000 0 -12298003.837 16552097.306 15001379.638 10 0 58838 81900.00000 0 -13570065.670 17679582.077 12387001.737 10 0 58838 82800.00000 0 -14496184.690 18683320.736 9531721.945 10 0 58838 83700.00000 0 -15082473.055 19502919.446 6491021.169 10 0 58838 84600.00000 0 -15347849.611 20082428.607 3324021.820 10 0 58838 85500.00000 0 -15323013.556 20372814.973 92333.649 99